QPF
0.00 0.01 0.09 0.11 0.01 0.01 0.00 0.00 0.00 0.00 0.00 0.00 0.00 0.00 0.00 0.00 0.00 0.00 0.00 0.00 0.00 0.00 0.04 0.13 0.04 0.06 0.01 0.00 0.02 0.04 0.01 0.00 0.00 0.00 0.03 0.00 0.00 0.00 0.03 0.07 0.02 0.00 0.00 0.00 0.00 0.00 0.00 0.00 0.00
0.03 0.08 0.14 0.06 0.01 0.00 0.01 0.00 0.00 0.00 0.00 0.00 0.00 0.00 0.00 0.00 0.00 0.00 0.00 0.00 0.00 0.00 0.00 0.06 0.08 0.04 0.01 0.01 0.01 0.04 0.02 0.00 0.00 0.01 0.03 0.01 0.00 0.02 0.04 0.05 0.01 0.01 0.00 0.00 0.00 0.00 0.00 0.03 0.02
0.10 0.07 0.03 0.01 0.00 0.00 0.00 0.01 0.00 0.00 0.00 0.00 0.00 0.00 0.01 0.00 0.00 0.00 0.00 0.00 0.00 0.00 0.00 0.00 0.01 0.00 0.00 0.01 0.02 0.04 0.01 0.00 0.00 0.00 0.01 0.00 0.00 0.02 0.01 0.02 0.01 0.00 0.00 0.00 0.00 0.00 0.00 0.01 0.00
0.04 0.01 0.01 0.01 0.00 0.00 0.00 0.00 0.00 0.00 0.00 0.00 0.00 0.00 0.00 0.00 0.00 0.00 0.00 0.00 0.00 0.00 0.00 0.01 0.00 0.00 0.00 0.00 0.00 0.03 0.04 0.01 0.00 0.00 0.00 0.00 0.00 0.00 0.00 0.00 0.00 0.00 0.00 0.00 0.00 0.00 0.00 0.00 0.00
0.00 0.00 0.00 0.00 0.00 0.00 0.00 0.00 0.00 0.00 0.00 0.00 0.00 0.00 0.00 0.00 0.00 0.00 0.00 0.00 0.00 0.00 0.00 0.02 0.01 0.02 0.00 0.00 0.02 0.02 0.03 0.00 0.00 0.00 0.00 0.00 0.01 0.01 0.00 0.00 0.00 0.00 0.00 0.00 0.00 0.00 0.00 0.00 0.00
0.00 0.01 0.01 0.02 0.01 0.02 0.01 0.00 0.00 0.00 0.00 0.00 0.00 0.00 0.00 0.00 0.00 0.00 0.00 0.00 0.00 0.00 0.00 0.00 0.04 0.08 0.01 0.01 0.00 0.00 0.01 0.02 0.03 0.00 0.00 0.01 0.00 0.00 0.00 0.00 0.00 0.00 0.00 0.00 0.00 0.00 0.00 0.00 0.00
0.02 0.12 0.05 0.08 0.02 0.01 0.01 0.00 0.00 0.00 0.00 0.00 0.00 0.00 0.00 0.01 0.02 0.00 0.00 0.00 0.00 0.00 0.00 0.00 0.02 0.04 0.01 0.02 0.01 0.00 0.00 0.01 0.03 0.01 0.00 0.00 0.00 0.00 0.00 0.00 0.00 0.00 0.00 0.00 0.00 0.00 0.00 0.00 0.00
0.05 0.07 0.03 0.09 0.07 0.03 0.06 0.04 0.00 0.00 0.00 0.00 0.00 0.00 0.00 0.01 0.02 0.01 0.00 0.00 0.00 0.00 0.00 0.00 0.00 0.03 0.01 0.02 0.02 0.01 0.01 0.00 0.00 0.00 0.00 0.00 0.00 0.00 0.00 0.00 0.00 0.00 0.00 0.00 0.00 0.00 0.00 0.00 0.00
0.08 0.21 0.08 0.07 0.03 0.00 0.01 0.01 0.00 0.00 0.00 0.00 0.00 0.00 0.00 0.00 0.01 0.00 0.00 0.00 0.00 0.00 0.00 0.00 0.00 0.01 0.01 0.01 0.01 0.03 0.01 0.00 0.00 0.00 0.00 0.00 0.00 0.00 0.00 0.00 0.00 0.00 0.00 0.00 0.00 0.00 0.00 0.00 0.00
0.11 0.17 0.03 0.08 0.01 0.00 0.00 0.00 0.00 0.00 0.00 0.00 0.00 0.00 0.00 0.00 0.00 0.00 0.00 0.00 0.00 0.00 0.00 0.00 0.00 0.00 0.00 0.01 0.03 0.00 0.00 0.00 0.00 0.00 0.00 0.00 0.00 0.00 0.00 0.00 0.00 0.00 0.00 0.00 0.00 0.00 0.00 0.00 0.00
0.01 0.02 0.00 0.01 0.00 0.00 0.00 0.00 0.00 0.00 0.00 0.00 0.00 0.00 0.00 0.00 0.00 0.00 0.00 0.00 0.00 0.00 0.00 0.00 0.00 0.00 0.00 0.01 0.02 0.00 0.00 0.00 0.00 0.00 0.00 0.00 0.00 0.00 0.00 0.00 0.00 0.00 0.00 0.00 0.00 0.00 0.00 0.00 0.00
0.01 0.04 0.04 0.02 0.01 0.01 0.04 0.01 0.00 0.00 0.00 0.00 0.00 0.00 0.00 0.00 0.00 0.00 0.00 0.00 0.00 0.00 0.00 0.00 0.01 0.00 0.00 0.00 0.00 0.00 0.00 0.00 0.00 0.00 0.00 0.00 0.00 0.00 0.00 0.00 0.00 0.00 0.00 0.00 0.00 0.00 0.00 0.00 0.00
0.00 0.03 0.08 0.10 0.12 0.01 0.09 0.03 0.00 0.00 0.00 0.00 0.00 0.00 0.00 0.00 0.00 0.00 0.00 0.00 0.00 0.00 0.00 0.00 0.00 0.00 0.00 0.00 0.00 0.00 0.00 0.00 0.00 0.00 0.00 0.00 0.00 0.00 0.00 0.00 0.00 0.00 0.00 0.00 0.00 0.00 0.00 0.00 0.00
0.00 0.01 0.06 0.43 0.71 0.12 0.04 0.04 0.00 0.00 0.00 0.00 0.00 0.00 0.00 0.00 0.00 0.00 0.00 0.00 0.00 0.00 0.00 0.00 0.00 0.00 0.00 0.00 0.00 0.00 0.00 0.00 0.00 0.00 0.00 0.00 0.00 0.00 0.00 0.00 0.00 0.00 0.00 0.00 0.00 0.00 0.00 0.00 0.00
0.00 0.01 0.21 0.42 0.89 0.20 0.04 0.01 0.00 0.00 0.00 0.00 0.00 0.00 0.00 0.00 0.00 0.00 0.00 0.00 0.00 0.00 0.00 0.00 0.00 0.00 0.00 0.00 0.00 0.00 0.00 0.00 0.00 0.00 0.00 0.00 0.00 0.00 0.00 0.00 0.00 0.00 0.00 0.00 0.00 0.00 0.00 0.00 0.00
0.00 0.00 0.09 0.25 0.26 0.19 0.08 0.01 0.01 0.00 0.00 0.00 0.00 0.00 0.00 0.00 0.00 0.00 0.00 0.00 0.00 0.00 0.00 0.00 0.00 0.00 0.00 0.00 0.00 0.00 0.00 0.00 0.00 0.00 0.00 0.00 0.00 0.00 0.00 0.00 0.00 0.00 0.00 0.00 0.00 0.00 0.00 0.00 0.00
0.00 0.00 0.06 0.03 0.03 0.07 0.13 0.02 0.00 0.00 0.00 0.00 0.00 0.00 0.00 0.00 0.00 0.00 0.00 0.00 0.00 0.00 0.00 0.00 0.00 0.00 0.00 0.00 0.00 0.00 0.00 0.00 0.00 0.00 0.00 0.00 0.00 0.00 0.00 0.00 0.00 0.00 0.00 0.00 0.00 0.00 0.00 0.00 0.00
0.00 0.00 0.03 0.00 0.00 0.01 0.04 0.04 0.00 0.00 0.00 0.00 0.00 0.00 0.00 0.00 0.00 0.00 0.00 0.00 0.00 0.00 0.00 0.00 0.00 0.00 0.00 0.00 0.00 0.00 0.00 0.00 0.00 0.00 0.00 0.00 0.00 0.00 0.00 0.00 0.00 0.00 0.00 0.00 0.00 0.00 0.00 0.00 0.00
0.00 0.00 0.00 0.00 0.00 0.00 0.00 0.00 0.01 0.00 0.00 0.00 0.00 0.00 0.00 0.00 0.00 0.00 0.00 0.00 0.00 0.00 0.00 0.00 0.00 0.00 0.00 0.00 0.00 0.00 0.00 0.00 0.00 0.00 0.00 0.00 0.00 0.00 0.00 0.00 0.00 0.00 0.00 0.00 0.00 0.00 0.00 0.00 0.00
0.00 0.00 0.00 0.00 0.00 0.00 0.00 0.00 0.01 0.00 0.00 0.00 0.00 0.00 0.00 0.00 0.00 0.00 0.00 0.00 0.00 0.00 0.00 0.00 0.00 0.00 0.00 0.00 0.00 0.00 0.00 0.00 0.00 0.00 0.00 0.00 0.00 0.00 0.00 0.00 0.00 0.00 0.00 0.00 0.00 0.00 0.00 0.00 0.00
0.00 0.00 0.00 0.00 0.00 0.00 0.00 0.00 0.00 0.00 0.00 0.00 0.00 0.00 0.00 0.00 0.00 0.00 0.00 0.00 0.00 0.00 0.00 0.00 0.00 0.00 0.00 0.00 0.00 0.00 0.00 0.00 0.00 0.00 0.00 0.00 0.00 0.00 0.00 0.00 0.00 0.00 0.00 0.00 0.00 0.00 0.00 0.00 0.00
0.00 0.00 0.00 0.00 0.00 0.00 0.00 0.00 0.00 0.00 0.00 0.00 0.00 0.00 0.00 0.00 0.00 0.00 0.00 0.00 0.00 0.00 0.00 0.00 0.00 0.00 0.00 0.00 0.00 0.00 0.00 0.00 0.00 0.00 0.00 0.00 0.00 0.00 0.00 0.00 0.00 0.00 0.00 0.00 0.00 0.00 0.00 0.00 0.00
0.00 0.00 0.00 0.00 0.00 0.00 0.00 0.00 0.00 0.00 0.00 0.00 0.00 0.00 0.00 0.00 0.00 0.00 0.00 0.00 0.00 0.00 0.00 0.00 0.00 0.00 0.00 0.00 0.00 0.00 0.00 0.00 0.00 0.00 0.00 0.00 0.00 0.00 0.00 0.00 0.00 0.00 0.00 0.00 0.00 0.00 0.00 0.00 0.00
0.00 0.00 0.00 0.00 0.00 0.00 0.00 0.00 0.00 0.00 0.00 0.00 0.00 0.00 0.00 0.00 0.00 0.00 0.00 0.00 0.00 0.00 0.00 0.00 0.00 0.00 0.00 0.00 0.00 0.00 0.00 0.00 0.00 0.00 0.00 0.00 0.00 0.00 0.00 0.00 0.00 0.00 0.00 0.00 0.00 0.00 0.00 0.00 0.00
0.00 0.00 0.00 0.00 0.00 0.00 0.00 0.00 0.00 0.00 0.00 0.00 0.00 0.00 0.00 0.00 0.00 0.00 0.00 0.00 0.00 0.00 0.00 0.00 0.00 0.00 0.00 0.00 0.00 0.00 0.00 0.00 0.00 0.00 0.00 0.00 0.00 0.00 0.00 0.00 0.00 0.00 0.00 0.00 0.00 0.00 0.00 0.00 0.00
0.00 0.00 0.00 0.00 0.00 0.00 0.00 0.00 0.00 0.00 0.00 0.00 0.00 0.00 0.00 0.00 0.00 0.00 0.00 0.00 0.00 0.00 0.00 0.00 0.00 0.00 0.00 0.00 0.00 0.00 0.00 0.00 0.00 0.00 0.00 0.00 0.00 0.00 0.00 0.00 0.00 0.00 0.00 0.00 0.00 0.00 0.00 0.00 0.00
0.00 0.00 0.00 0.00 0.00 0.00 0.00 0.00 0.00 0.00 0.00 0.00 0.00 0.00 0.00 0.00 0.00 0.00 0.00 0.00 0.00 0.00 0.00 0.00 0.00 0.00 0.00 0.00 0.00 0.00 0.00 0.00 0.00 0.00 0.00 0.00 0.00 0.00 0.00 0.00 0.00 0.00 0.00 0.00 0.00 0.00 0.00 0.00 0.00
0.00 0.00 0.00 0.00 0.00 0.00 0.00 0.00 0.00 0.00 0.00 0.00 0.00 0.00 0.00 0.00 0.00 0.00 0.00 0.00 0.00 0.00 0.00 0.00 0.00 0.00 0.00 0.00 0.00 0.00 0.00 0.00 0.00 0.00 0.00 0.00 0.00 0.00 0.00 0.00 0.00 0.00 0.00 0.00 0.00 0.00 0.00 0.00 0.00
0.00 0.00 0.00 0.00 0.00 0.00 0.00 0.00 0.00 0.00 0.00 0.00 0.00 0.00 0.00 0.00 0.00 0.00 0.00 0.00 0.00 0.00 0.00 0.00 0.00 0.00 0.00 0.00 0.00 0.00 0.00 0.00 0.00 0.00 0.00 0.00 0.00 0.00 0.00 0.00 0.00 0.00 0.00 0.00 0.00 0.00 0.00 0.00 0.00
0.00 0.00 0.00 0.00 0.00 0.00 0.00 0.00 0.00 0.00 0.00 0.00 0.00 0.00 0.00 0.00 0.01 0.01 0.00 0.00 0.00 0.00 0.00 0.00 0.00 0.00 0.00 0.00 0.00 0.00 0.00 0.00 0.00 0.00 0.00 0.00 0.00 0.00 0.00 0.00 0.01 0.00 0.00 0.00 0.00 0.00 0.00 0.00 0.00
MSLP
1009.95 1010.36 1010.58 1010.90 1011.10 1010.43 1010.10 1009.53 1008.82 1008.61 1008.71 1008.80 1009.46 1010.11 1011.04 1011.79 1012.20 1013.52 1013.36 1013.81 1014.05 1014.48 1014.63 1014.74 1014.91 1014.97 1015.17 1015.28 1015.31 1015.30 1015.33 1015.30 1015.42 1015.43 1015.44 1015.56 1015.66 1015.66 1015.79 1015.92 1016.07 1016.14 1016.29 1016.18 1016.16 1016.40 1016.49 1016.47 1016.45
1009.74 1010.27 1010.61 1010.44 1010.67 1010.33 1010.08 1009.50 1009.04 1008.61 1008.80 1008.99 1009.71 1010.45 1011.10 1012.07 1012.53 1013.18 1013.74 1014.05 1014.15 1014.46 1014.77 1014.99 1015.13 1015.21 1015.35 1015.45 1015.49 1015.48 1015.58 1015.62 1015.65 1015.74 1015.89 1015.94 1015.94 1015.92 1015.93 1016.17 1016.32 1016.34 1016.46 1016.60 1016.70 1016.78 1016.86 1016.82 1016.90
1009.92 1010.07 1010.46 1010.18 1009.99 1009.86 1009.54 1009.39 1009.18 1009.01 1008.84 1009.03 1010.20 1010.56 1011.32 1012.45 1012.95 1013.40 1013.69 1014.14 1014.48 1014.81 1014.98 1015.20 1015.30 1015.43 1015.52 1015.70 1015.72 1015.68 1015.81 1015.86 1015.84 1015.93 1016.17 1016.27 1016.21 1016.25 1016.40 1016.53 1016.65 1016.71 1016.81 1017.02 1017.13 1017.10 1017.18 1017.30 1017.21
1009.55 1010.12 1010.37 1009.98 1009.43 1008.64 1008.52 1009.03 1009.03 1008.99 1009.31 1009.58 1010.35 1011.28 1012.01 1012.28 1012.85 1013.26 1013.84 1014.19 1014.77 1015.01 1015.13 1015.24 1015.44 1015.55 1015.70 1015.89 1015.96 1016.05 1016.11 1016.05 1016.02 1016.21 1016.37 1016.48 1016.56 1016.59 1016.67 1016.80 1016.97 1017.09 1017.13 1017.29 1017.42 1017.49 1017.54 1017.54 1017.49
1009.66 1009.94 1010.08 1009.70 1008.99 1008.39 1008.43 1008.75 1009.04 1008.97 1009.48 1009.93 1010.44 1011.82 1012.43 1012.89 1013.07 1013.70 1014.10 1014.58 1014.87 1015.20 1015.30 1015.52 1015.61 1015.71 1015.89 1016.07 1016.24 1016.21 1016.36 1016.38 1016.29 1016.46 1016.66 1016.72 1016.79 1016.89 1017.01 1017.13 1017.32 1017.35 1017.55 1017.65 1017.76 1017.71 1017.77 1017.78 1017.83
1009.92 1010.23 1010.39 1010.04 1009.14 1008.76 1008.57 1008.68 1008.92 1009.14 1009.70 1010.41 1011.27 1011.96 1013.19 1013.38 1013.55 1014.12 1014.42 1014.78 1014.93 1015.31 1015.46 1015.59 1015.71 1015.87 1016.05 1016.17 1016.38 1016.47 1016.59 1016.65 1016.69 1016.80 1016.88 1016.98 1017.09 1017.11 1017.19 1017.30 1017.52 1017.72 1017.81 1017.87 1017.99 1018.05 1018.14 1018.18 1018.16
1010.23 1010.81 1011.46 1010.88 1009.74 1009.20 1008.76 1008.82 1008.78 1009.38 1009.68 1010.53 1011.03 1012.29 1013.57 1013.86 1014.03 1014.38 1014.78 1015.05 1015.10 1015.28 1015.54 1015.74 1016.00 1016.04 1016.17 1016.41 1016.61 1016.68 1016.77 1016.88 1017.02 1017.08 1017.14 1017.17 1017.25 1017.36 1017.49 1017.61 1017.81 1017.92 1018.10 1018.16 1018.23 1018.36 1018.41 1018.48 1018.56
1010.85 1011.44 1011.54 1011.28 1010.24 1009.59 1009.13 1008.98 1009.20 1009.10 1009.78 1010.32 1010.84 1012.42 1013.28 1013.75 1014.22 1014.72 1015.16 1015.37 1015.50 1015.59 1015.72 1015.94 1016.12 1016.33 1016.52 1016.64 1016.70 1016.83 1016.91 1016.94 1017.05 1017.26 1017.39 1017.45 1017.50 1017.60 1017.72 1017.93 1017.96 1018.06 1018.27 1018.41 1018.53 1018.64 1018.71 1018.82 1018.77
1011.17 1011.80 1011.94 1011.32 1010.87 1010.23 1009.58 1009.56 1009.46 1009.29 1009.76 1010.37 1010.70 1011.61 1012.49 1013.65 1014.30 1014.99 1015.42 1015.74 1015.95 1016.02 1016.15 1016.24 1016.49 1016.68 1016.75 1016.94 1017.02 1017.04 1017.13 1017.19 1017.22 1017.32 1017.45 1017.58 1017.87 1017.88 1017.99 1018.14 1018.14 1018.25 1018.46 1018.61 1018.74 1018.86 1018.93 1018.90 1018.85
1011.82 1012.05 1011.67 1010.92 1010.70 1010.54 1010.35 1009.86 1009.40 1009.86 1010.42 1010.74 1011.19 1012.09 1012.97 1013.68 1014.34 1014.82 1015.39 1015.74 1016.05 1016.17 1016.38 1016.55 1016.56 1016.83 1016.90 1016.96 1017.22 1017.41 1017.42 1017.52 1017.62 1017.69 1017.82 1018.14 1018.28 1018.27 1018.28 1018.26 1018.31 1018.43 1018.66 1018.84 1018.97 1019.01 1019.02 1018.96 1019.02
1011.00 1011.20 1010.79 1010.64 1010.84 1010.95 1010.83 1010.21 1009.86 1009.95 1010.72 1010.70 1011.14 1012.20 1013.13 1013.83 1014.53 1014.91 1015.24 1015.40 1015.57 1015.99 1016.26 1016.53 1016.64 1016.78 1016.90 1017.07 1017.47 1017.72 1017.79 1017.91 1017.98 1018.08 1018.26 1018.44 1018.57 1018.62 1018.54 1018.66 1018.64 1018.83 1018.86 1019.09 1019.17 1019.22 1019.22 1019.04 1019.01
1010.22 1010.65 1010.56 1010.83 1010.85 1010.72 1010.69 1010.54 1010.00 1009.75 1009.63 1010.52 1011.25 1011.96 1012.97 1013.90 1014.30 1014.78 1015.09 1015.60 1015.83 1016.04 1016.09 1016.38 1016.55 1016.84 1016.97 1017.15 1017.50 1017.66 1017.98 1018.08 1018.19 1018.24 1018.36 1018.58 1018.82 1018.97 1019.00 1018.96 1019.05 1019.06 1019.10 1019.04 1019.08 1019.26 1019.39 1019.31 1018.99
1009.52 1010.08 1010.40 1010.48 1010.67 1010.82 1010.59 1010.21 1009.92 1010.13 1010.00 1010.76 1011.56 1012.40 1012.89 1013.45 1013.94 1014.27 1014.51 1015.15 1015.61 1016.01 1016.03 1016.04 1016.26 1016.80 1017.06 1017.27 1017.48 1017.73 1017.94 1018.07 1018.16 1018.30 1018.36 1018.51 1018.83 1019.04 1019.16 1019.20 1019.29 1019.15 1019.16 1019.17 1019.14 1019.08 1018.91 1018.72 1018.53
1008.54 1009.84 1010.69 1010.70 1011.05 1011.25 1010.70 1009.44 1009.61 1009.99 1010.24 1011.01 1011.46 1012.37 1012.75 1013.06 1013.50 1014.13 1014.57 1014.97 1015.36 1015.70 1015.82 1016.17 1016.28 1016.38 1016.74 1017.18 1017.49 1017.66 1017.86 1017.93 1018.16 1018.23 1018.29 1018.40 1018.64 1018.97 1019.21 1019.38 1019.36 1019.28 1019.30 1019.28 1019.18 1019.10 1018.94 1018.90 1018.68
1008.58 1009.83 1010.87 1011.72 1011.44 1010.89 1010.26 1010.40 1009.80 1009.48 1010.12 1010.80 1011.41 1011.90 1012.47 1012.77 1013.17 1013.43 1013.80 1014.42 1014.82 1015.16 1015.56 1015.95 1016.06 1016.24 1016.62 1016.99 1017.32 1017.58 1017.70 1017.86 1018.01 1018.07 1018.25 1018.37 1018.57 1018.83 1019.06 1019.29 1019.34 1019.20 1019.24 1019.22 1019.17 1018.94 1018.87 1018.73 1018.60
1008.49 1009.53 1010.83 1012.05 1011.50 1010.62 1011.00 1010.10 1009.87 1009.81 1010.07 1010.74 1011.21 1011.52 1011.93 1012.46 1012.62 1012.95 1013.39 1013.85 1014.29 1014.83 1015.27 1015.73 1016.05 1016.40 1016.59 1016.93 1017.07 1017.37 1017.61 1017.76 1017.91 1017.95 1018.10 1018.22 1018.41 1018.76 1019.00 1019.09 1019.01 1019.22 1019.15 1019.10 1019.07 1019.18 1018.93 1018.78 1018.69
1008.80 1009.65 1010.59 1010.62 1009.94 1010.03 1010.43 1009.67 1009.60 1009.92 1010.18 1010.61 1010.86 1011.27 1011.60 1012.07 1012.28 1012.60 1012.86 1013.37 1013.82 1014.34 1014.98 1015.47 1015.83 1016.30 1016.62 1016.70 1016.80 1017.09 1017.44 1017.68 1017.78 1017.96 1018.06 1018.09 1018.32 1018.56 1018.86 1018.97 1018.85 1019.02 1019.04 1019.03 1019.17 1019.18 1019.18 1019.06 1018.82
1009.26 1009.43 1009.57 1009.43 1008.99 1009.57 1009.34 1008.87 1009.18 1009.65 1010.04 1010.23 1010.53 1010.77 1011.25 1011.68 1011.86 1012.09 1012.53 1013.01 1013.61 1014.04 1014.54 1015.00 1015.63 1016.01 1016.41 1016.56 1016.73 1017.02 1017.41 1017.57 1017.71 1017.85 1017.92 1018.03 1018.29 1018.45 1018.75 1018.98 1018.87 1018.83 1019.01 1019.17 1019.19 1019.22 1019.13 1019.15 1019.04
1009.05 1009.15 1009.01 1008.21 1007.88 1008.45 1008.40 1008.62 1008.80 1009.17 1009.96 1010.25 1010.35 1010.49 1010.67 1011.09 1011.42 1011.78 1012.29 1012.68 1013.44 1013.95 1014.43 1014.90 1015.45 1015.89 1016.27 1016.68 1017.11 1017.42 1017.55 1017.59 1017.77 1017.77 1017.74 1017.94 1018.14 1018.22 1018.59 1018.73 1018.79 1018.93 1019.22 1019.14 1019.09 1019.22 1019.36 1019.32 1019.09
1009.17 1009.18 1008.83 1007.94 1007.32 1007.61 1007.51 1007.97 1008.18 1008.44 1008.49 1009.01 1009.45 1010.02 1010.19 1010.55 1011.17 1011.66 1012.09 1012.59 1013.00 1013.48 1014.06 1014.64 1014.99 1015.45 1015.89 1016.02 1016.55 1016.84 1017.07 1017.22 1017.25 1017.44 1017.70 1017.81 1017.90 1018.03 1018.23 1018.41 1018.61 1018.66 1018.86 1018.96 1019.14 1019.36 1019.65 1019.51 1019.16
1009.19 1008.95 1008.69 1008.76 1007.60 1007.34 1007.50 1008.05 1008.03 1008.25 1008.21 1008.72 1009.21 1009.12 1009.56 1009.75 1010.36 1011.20 1011.68 1012.12 1012.57 1013.05 1013.61 1014.18 1014.48 1014.97 1015.48 1015.73 1016.26 1016.73 1016.97 1017.20 1017.46 1017.65 1017.76 1017.69 1017.74 1017.78 1017.91 1018.02 1018.22 1018.35 1018.56 1018.91 1019.11 1019.30 1019.64 1019.51 1019.40
1009.42 1009.06 1008.93 1008.77 1008.86 1008.45 1007.82 1008.02 1007.70 1007.57 1007.83 1007.98 1008.22 1008.43 1008.62 1008.99 1009.50 1010.23 1010.89 1011.53 1012.02 1012.38 1012.92 1013.39 1013.88 1014.33 1014.83 1015.39 1015.91 1016.41 1016.79 1017.17 1017.09 1017.17 1017.37 1017.47 1017.46 1017.58 1017.71 1017.83 1018.04 1018.15 1018.16 1018.72 1018.86 1019.04 1019.32 1019.56 1019.64
1009.31 1009.13 1009.34 1009.11 1009.24 1009.08 1008.40 1008.46 1007.02 1006.93 1007.51 1007.33 1007.07 1007.17 1007.48 1007.86 1008.48 1009.15 1009.79 1010.48 1011.10 1011.86 1012.34 1012.82 1013.30 1013.74 1014.25 1014.88 1015.35 1015.89 1016.38 1016.52 1016.56 1016.86 1017.18 1017.36 1017.40 1017.44 1017.50 1017.62 1017.78 1018.03 1018.21 1018.52 1018.69 1018.87 1019.19 1019.34 1019.42
1009.27 1009.27 1009.46 1009.55 1010.02 1009.96 1008.92 1008.63 1006.53 1006.39 1005.69 1005.41 1005.47 1005.64 1005.78 1006.56 1007.51 1008.26 1008.87 1009.77 1010.53 1011.20 1011.87 1012.35 1012.88 1013.25 1013.76 1014.26 1014.80 1015.38 1015.90 1016.29 1016.61 1016.76 1017.06 1017.25 1017.32 1017.50 1017.52 1017.48 1017.59 1017.76 1018.03 1018.33 1018.46 1018.81 1019.13 1019.27 1019.37
1010.36 1010.73 1011.34 1011.47 1011.31 1010.56 1009.21 1008.67 1006.17 1004.39 1003.55 1003.24 1003.41 1003.75 1004.33 1005.14 1006.32 1007.40 1008.35 1009.18 1009.90 1010.54 1011.20 1011.89 1012.38 1012.87 1013.37 1013.83 1014.25 1014.83 1015.33 1015.75 1016.06 1016.26 1016.58 1017.02 1017.28 1017.33 1017.33 1017.33 1017.52 1017.77 1017.69 1017.88 1018.15 1018.64 1018.82 1019.00 1019.20
1011.48 1011.72 1012.61 1012.76 1012.51 1011.33 1009.49 1007.84 1005.19 1003.47 1002.20 1001.99 1002.07 1002.15 1002.95 1004.09 1005.08 1006.07 1007.00 1007.88 1008.76 1009.46 1010.30 1011.09 1011.79 1012.23 1012.83 1013.35 1013.74 1014.21 1014.64 1015.20 1015.52 1015.74 1016.05 1016.37 1016.60 1016.60 1016.49 1016.93 1017.18 1017.27 1017.41 1017.58 1017.71 1018.11 1018.37 1018.57 1018.79
1011.66 1012.18 1012.36 1012.93 1012.66 1011.96 1009.87 1007.38 1004.93 1003.14 1002.20 1001.74 1001.48 1001.77 1002.18 1002.91 1003.76 1004.69 1005.71 1006.76 1007.74 1008.57 1009.35 1010.09 1010.94 1011.55 1012.03 1012.63 1013.26 1013.79 1014.20 1014.72 1015.08 1015.35 1015.61 1015.83 1016.05 1016.16 1016.37 1016.44 1016.96 1016.95 1017.15 1017.36 1017.74 1018.20 1018.28 1018.44 1018.54
1012.25 1012.30 1012.90 1013.60 1013.71 1012.66 1010.19 1007.98 1005.49 1004.11 1002.98 1001.71 1001.23 1001.11 1001.04 1001.65 1002.66 1003.72 1004.76 1005.81 1006.77 1007.51 1008.32 1009.27 1010.06 1010.67 1011.20 1011.84 1012.45 1013.10 1013.70 1014.13 1014.46 1014.82 1015.21 1015.36 1015.45 1015.72 1016.06 1016.27 1016.53 1016.66 1016.89 1017.02 1017.57 1017.85 1018.05 1018.27 1018.28
1013.04 1013.47 1013.65 1014.36 1014.44 1013.54 1011.25 1008.51 1005.38 1004.50 1003.37 1001.96 1000.53 1000.23 1000.43 1001.17 1001.79 1002.60 1003.62 1004.67 1005.62 1006.59 1007.63 1008.53 1009.31 1010.07 1010.72 1011.28 1011.72 1012.24 1012.92 1013.48 1013.96 1014.38 1014.73 1014.90 1015.07 1015.20 1015.62 1015.90 1016.21 1016.41 1016.52 1016.86 1017.30 1017.52 1017.61 1017.82 1017.94
1013.94 1014.17 1014.59 1015.06 1014.90 1014.23 1012.33 1008.44 1005.87 1004.92 1003.62 1002.73 1001.40 1000.62 1000.86 1001.12 1001.81 1003.03 1003.97 1004.61 1005.28 1006.18 1007.02 1007.78 1008.50 1009.20 1009.74 1010.36 1011.15 1011.69 1012.31 1012.99 1013.52 1013.94 1014.12 1014.33 1014.66 1014.93 1015.18 1015.49 1015.87 1016.05 1016.13 1016.31 1016.72 1017.02 1017.14 1017.34 1017.48
Thickness
5800 5796 5795 5785 5765 5755 5747 5754 5773 5766 5765 5776 5773 5763 5752 5750 5747 5725 5754 5753 5751 5747 5745 5745 5746 5748 5750 5751 5752 5754 5754 5754 5753 5755 5756 5756 5755 5757 5757 5758 5759 5760 5760 5762 5764 5763 5765 5766 5765
5804 5800 5794 5782 5754 5739 5746 5765 5760 5771 5776 5781 5771 5764 5754 5744 5756 5752 5748 5754 5752 5749 5746 5747 5747 5748 5750 5752 5753 5754 5754 5753 5753 5753 5754 5755 5757 5759 5759 5760 5760 5762 5763 5762 5763 5764 5764 5765 5765
5806 5804 5783 5773 5762 5747 5749 5769 5767 5776 5786 5782 5762 5771 5760 5748 5756 5754 5758 5756 5752 5749 5747 5746 5746 5748 5750 5751 5753 5754 5753 5753 5754 5754 5754 5756 5759 5759 5760 5760 5762 5763 5764 5763 5764 5765 5765 5765 5766
5806 5797 5787 5769 5768 5784 5777 5774 5779 5779 5781 5780 5769 5753 5763 5771 5762 5761 5761 5757 5754 5751 5749 5749 5749 5750 5751 5752 5753 5754 5753 5755 5756 5756 5756 5757 5759 5760 5760 5761 5763 5764 5766 5768 5767 5767 5765 5765 5765
5805 5792 5772 5771 5780 5789 5791 5789 5787 5779 5776 5775 5774 5752 5753 5766 5767 5762 5761 5759 5755 5753 5752 5751 5751 5752 5752 5752 5753 5754 5753 5755 5758 5757 5757 5759 5760 5760 5762 5764 5765 5767 5768 5768 5768 5768 5767 5767 5766
5785 5788 5767 5763 5780 5785 5789 5793 5789 5782 5778 5773 5763 5756 5751 5767 5764 5762 5762 5759 5758 5755 5753 5754 5755 5755 5754 5754 5754 5755 5755 5755 5757 5758 5758 5760 5761 5764 5767 5768 5769 5769 5768 5768 5768 5768 5766 5766 5764
5784 5775 5759 5760 5775 5775 5785 5796 5786 5781 5779 5770 5777 5749 5753 5762 5766 5764 5762 5761 5759 5758 5756 5755 5755 5756 5756 5755 5755 5756 5756 5757 5757 5758 5760 5762 5765 5768 5769 5771 5771 5771 5770 5769 5768 5767 5767 5764 5762
5786 5776 5764 5767 5767 5773 5790 5795 5796 5792 5780 5791 5787 5751 5749 5763 5768 5764 5762 5761 5760 5758 5757 5757 5757 5756 5757 5757 5757 5758 5759 5759 5760 5761 5762 5764 5767 5770 5771 5771 5772 5772 5771 5770 5768 5766 5766 5763 5764
5792 5763 5752 5766 5770 5774 5794 5785 5799 5805 5791 5789 5791 5779 5776 5772 5768 5761 5759 5758 5757 5758 5758 5757 5756 5757 5758 5757 5757 5758 5760 5761 5762 5763 5765 5767 5769 5771 5772 5773 5773 5773 5772 5771 5770 5768 5767 5767 5768
5775 5758 5763 5784 5785 5785 5786 5790 5792 5788 5783 5782 5782 5782 5779 5773 5766 5760 5757 5755 5755 5756 5757 5758 5758 5757 5758 5758 5758 5759 5761 5762 5764 5765 5766 5766 5768 5771 5772 5774 5774 5774 5773 5773 5771 5770 5770 5770 5771
5784 5767 5785 5789 5790 5787 5779 5790 5796 5788 5774 5786 5780 5777 5777 5771 5765 5761 5761 5762 5762 5761 5761 5760 5759 5759 5759 5759 5759 5760 5762 5763 5764 5765 5765 5766 5768 5771 5774 5774 5776 5776 5775 5773 5772 5773 5774 5775 5776
5778 5789 5791 5789 5792 5792 5785 5790 5791 5796 5797 5800 5794 5789 5780 5772 5768 5765 5763 5762 5762 5762 5764 5762 5761 5761 5761 5762 5761 5763 5763 5765 5767 5768 5769 5770 5770 5771 5773 5775 5776 5777 5777 5777 5777 5777 5776 5777 5781
5788 5790 5793 5794 5794 5790 5793 5789 5790 5789 5804 5801 5796 5787 5781 5779 5776 5775 5774 5770 5768 5763 5765 5768 5767 5764 5763 5764 5765 5765 5766 5767 5769 5770 5772 5774 5774 5774 5775 5777 5777 5779 5779 5780 5781 5782 5784 5786 5788
5806 5793 5788 5785 5779 5781 5783 5796 5795 5794 5804 5796 5795 5786 5786 5784 5781 5778 5776 5773 5770 5770 5771 5771 5771 5770 5769 5768 5768 5768 5769 5772 5772 5773 5776 5778 5778 5778 5779 5779 5779 5780 5780 5782 5783 5784 5787 5789 5791
5804 5783 5782 5774 5759 5778 5798 5778 5778 5802 5802 5796 5794 5791 5788 5787 5786 5785 5786 5781 5780 5779 5778 5775 5776 5773 5773 5773 5773 5772 5774 5775 5776 5778 5779 5781 5782 5782 5782 5781 5781 5783 5784 5785 5786 5789 5792 5795 5795
5795 5787 5765 5765 5770 5788 5783 5766 5788 5802 5800 5792 5794 5794 5793 5790 5792 5792 5794 5791 5789 5786 5783 5780 5779 5776 5776 5777 5777 5777 5777 5779 5781 5782 5784 5785 5784 5784 5784 5784 5786 5785 5786 5788 5789 5791 5795 5797 5798
5781 5758 5758 5768 5791 5791 5783 5778 5793 5801 5798 5792 5794 5795 5795 5792 5796 5797 5800 5798 5796 5794 5788 5786 5784 5780 5780 5781 5782 5782 5781 5782 5785 5786 5788 5788 5787 5787 5787 5787 5789 5788 5788 5790 5791 5794 5796 5797 5801
5757 5758 5773 5770 5790 5783 5786 5787 5796 5800 5796 5794 5795 5798 5797 5794 5797 5802 5804 5804 5800 5799 5797 5794 5791 5789 5786 5785 5785 5784 5785 5786 5787 5790 5791 5791 5790 5791 5790 5788 5790 5791 5790 5792 5793 5796 5800 5800 5802
5775 5767 5764 5786 5807 5786 5784 5786 5792 5800 5793 5791 5793 5796 5800 5799 5804 5806 5806 5808 5803 5800 5798 5796 5793 5791 5789 5785 5782 5781 5782 5788 5790 5793 5795 5794 5794 5795 5793 5792 5791 5791 5791 5794 5797 5797 5797 5800 5804
5768 5759 5760 5780 5801 5793 5795 5785 5799 5801 5802 5799 5799 5796 5801 5802 5799 5803 5804 5805 5805 5802 5801 5799 5798 5795 5794 5794 5790 5790 5789 5791 5795 5796 5796 5797 5797 5797 5796 5795 5795 5795 5796 5797 5796 5796 5795 5799 5804
5754 5759 5762 5762 5784 5795 5793 5778 5785 5797 5803 5802 5800 5806 5805 5808 5803 5802 5803 5804 5808 5806 5803 5801 5802 5800 5798 5799 5796 5794 5794 5794 5793 5794 5796 5798 5798 5798 5798 5798 5798 5798 5799 5798 5797 5796 5795 5796 5801
5738 5766 5765 5765 5760 5746 5787 5742 5778 5791 5790 5797 5800 5805 5806 5810 5813 5810 5808 5806 5807 5809 5810 5808 5807 5805 5804 5801 5798 5795 5791 5788 5795 5797 5799 5799 5799 5799 5800 5799 5798 5799 5800 5798 5799 5799 5798 5797 5794
5747 5763 5755 5761 5751 5760 5770 5748 5773 5791 5781 5791 5803 5811 5814 5816 5817 5815 5814 5813 5812 5811 5811 5810 5810 5809 5808 5805 5803 5799 5796 5799 5800 5800 5798 5798 5798 5798 5797 5797 5797 5796 5797 5798 5797 5797 5796 5797 5797
5761 5754 5749 5751 5737 5714 5758 5753 5776 5776 5798 5808 5813 5821 5826 5823 5821 5820 5821 5818 5814 5814 5812 5812 5810 5811 5810 5808 5805 5802 5799 5799 5797 5798 5797 5796 5797 5796 5794 5794 5794 5795 5795 5795 5796 5796 5794 5794 5795
5730 5717 5687 5698 5700 5708 5749 5738 5788 5807 5826 5832 5829 5832 5834 5832 5827 5822 5817 5816 5816 5815 5812 5811 5811 5810 5810 5809 5808 5805 5802 5801 5799 5800 5799 5796 5794 5794 5795 5795 5793 5793 5795 5795 5795 5794 5794 5794 5793
5709 5705 5675 5677 5676 5699 5740 5724 5770 5819 5839 5844 5842 5843 5840 5834 5831 5829 5826 5822 5820 5820 5816 5813 5810 5811 5811 5809 5809 5808 5806 5803 5801 5801 5801 5800 5798 5799 5799 5796 5794 5793 5793 5794 5795 5795 5795 5795 5793
5707 5690 5707 5685 5694 5682 5709 5748 5788 5817 5825 5833 5838 5840 5839 5839 5836 5835 5833 5828 5824 5822 5820 5818 5812 5811 5812 5810 5809 5808 5807 5804 5802 5801 5802 5801 5801 5800 5798 5797 5795 5794 5795 5795 5793 5791 5792 5793 5792
5698 5706 5674 5663 5673 5671 5694 5723 5744 5783 5804 5819 5827 5836 5846 5848 5841 5838 5835 5830 5827 5826 5823 5819 5816 5813 5812 5811 5810 5809 5807 5806 5805 5804 5800 5801 5802 5801 5799 5797 5796 5796 5795 5794 5792 5790 5790 5789 5790
5673 5662 5670 5664 5656 5653 5662 5696 5765 5782 5799 5813 5834 5844 5846 5844 5845 5842 5838 5834 5830 5826 5822 5818 5817 5813 5812 5811 5810 5809 5808 5807 5805 5803 5802 5803 5802 5801 5798 5797 5796 5796 5795 5794 5790 5790 5790 5789 5789
5673 5665 5651 5634 5645 5650 5653 5688 5775 5778 5792 5801 5822 5839 5842 5844 5842 5833 5827 5827 5825 5823 5821 5820 5818 5816 5816 5813 5810 5808 5806 5804 5803 5801 5801 5802 5800 5799 5797 5797 5795 5794 5794 5793 5790 5789 5790 5789 5788